Погода в Бакчаре

Погода в Бакчаре : погода сейчас, прогноз погоды и архив. Всё, что Вы хотите узнать о погоде в Бакчаре!

Хотите узнать прогноз погоды в Бакчаре? Тогда Вам сюда: Погода в Бакчаре

Поиск расширенной информации на нашем сайте:

Другие новости

Новости СМИ2

Главная страница сайта

Новости сайта

02.10.2013

Напоминаем, что на нашем новом сайте вы можете получить высокодетализированные прогнозы погоды по пунктам России, СНГ и мира (включающие важные для авиации метеовеличины, такие как направление и скорость ветра, видимость, явления погоды, количество и форма облачности, нижняя и верхняя граница облачности), а также ознакомиться с разнообразными материалами по авиационной метеорологии и подборкой полезных ссылок на эту тему.

Сайт Метеоцентр.Азия посвящён разработке технологий оптимизации авиаметеорологического обслуживания, включая проектирование и перспективное создание нескольких автоматизированных авиаметеорологических систем:
- система выпуска высокодетальных прогностических карт явлений погоды для нижнего воздушного пространства по России и ближнему зарубежью;
- система верификации прогнозов TAF (выпускаемых синоптиками официальных АМСГ РФ и ближнего зарубежья) и AUTOTAF (выпускаемых сайтом Метеоцентр.Азия) - выявление ошибок, онлайн-сопоставление с фактической погодой METAR, автоматическое внесение коррективов в прогнозы при резком отклонении фактической погоды от прогноза, подсчёт оправдываемости прогнозов по элементам и в целом;
- система обработки, анализа и отображения авиаметеорологической информации для применения провайдерами метеорологической информации.

Рекомендуем: лучшие русские мелодрамы смотреть

Погода в Бакчаре - сегодня

Время (UTC), дата Ветер
(°,м/с) 
Видим.   Явления Облачность Т
(°С)
Тd
(°С)
f(%) Тe
(°С)
Pmin
(гПа)
dP
(гПа)
Po
(мм)
O2
(г/м3)
Тmin Tmax R s Состояние
почвы
12 26.04.17 170 (Ю) 20000 м    10/0 средняя, верхняя 
[As op|Ci sp]
+20.3 -0.2 25 +20  1017.8  -2.1  754  283    +20.8       
15 26.04.17 140 (ЮВ) 20000 м    10/3 600 м кучево-дожд., средняя, верхняя 
[Cb cap|Ac lent|Ci fib]
+9 +2 61 +10  1017.2  -1  753  293           
18 26.04.17 160 (Ю) 20000 м    ясно 
+7.1 +2.1 70 +7  1015.4  -1.9  751  295           
21 26.04.17 150 (ЮВ) н/о    н/о 
+7.5 +1.3 65 +7               
00 27.04.17 160 (Ю) 20000 м    10/0 средняя, верхняя 
[Ac trans|Ci fib]
+10.2 +2.7 60 +10  1011.2  -1.9  748  290  +4.3         
03 27.04.17 180 (Ю) н/о    н/о 
+18.6 +1.4 32 +19               
06 27.04.17 190 (Ю) 8-11{12}  20000 м    3/0 верхняя 
[Ci sp]
+24.7 +3.6 25 +25  1007.3  -1.6  746  275           
09 27.04.17 230 (ЮЗ) 6-10{12}  20000 м    8/0 средняя, верхняя 
[As trans|Ci sp]
+26.1 +4.3 25 +26  1007.3  746  274           
12 27.04.17 290 (З) 4{10}  н/о    н/о 
+22.8 +5 31 +23        +26.4       
15 27.04.17 330 (СЗ) 5-10{11}  20000 м    10/10 600 м кучево-дожд. 
[Cb cap]
+13.3 +8.5 73 +13  1013.4  4.2  750  287           
18 27.04.17 350 (С) 5{11}  20000 м  {ливн. осадки}  10/8 600 м кучево-дожд., средняя 
[Cb cap|Ac As]
+5.1 +1.7 79 +3  1018.2  4.3  753  298           
21 27.04.17 350 (С) 4{10}  20000 м    10/5 600 м кучево-дожд., средняя 
[Cb cap|Ac As]
+4.1 +0.9 80 +2  1020.2  1.9  755  300           
00 28.04.17 350 (С) 20000 м    10/10 600 м кучево-дожд. 
[Cb cap]
+2.7 +0 82 +1  1022.2  1.9  756  302  +2.7    0.0     
03 28.04.17 010 (С) 20000 м    10/10 600 м кучево-дожд. 
[Cb cap]
+2.4 -0.4 82 +1  1022.8  0.6  757  302  +2.3         
06 28.04.17 020 (С) 20000 м    10/10 600 м кучево-дожд. 
[Cb cap]
+3.3 +0 79 +3  1022.5  -0.3  757  301           
09 28.04.17 350 (С) 20000 м    10/10 600 м кучево-дожд. 
[Cb cap]
+4.8 +0.7 75 +6  1021.2  -1.2  756  299           
12 28.04.17 210 (ЮЗ) 20000 м    10/8 600 м кучево-дожд., средняя 
[Cb cap|Ac trans]
+6.1 +1.1 70 +7  1019.4  -1.8  754  297    +6.1       
15 28.04.17 150 (ЮВ) 20000 м    3/0 средняя 
[Ac trans]
+3.3 +0.1 80 +2  1018.4  -1  754  300           
18 28.04.17 200 (Ю) 20000 м    1/0 средняя 
[Ac trans]
+2 +0.9 92 +1  1018.3  -0.2  753  301           
21 28.04.17 200 (Ю) н/о    н/о 
+2.1 +0.4 88 +1               
00 29.04.17 200 (Ю) 20000 м    3/0 средняя, верхняя 
[Ac trans|Cc]
+4.1 +0.4 77 +2  1014.8  -2  751  298  +1.5         
03 29.04.17 220 (ЮЗ) 4{10}  20000 м    10/0 верхняя 
[Ci sp]
+11.9 +0.5 45 +11  1012.7  -1.7  750  289           
06 29.04.17 250 (З) 4{11}  20000 м    10/8 600 м кучево-дожд., средняя 
[Cb cap|Ac trans]
+15.3 +1.7 40 +15  1010.9  -1.6  748  285           
09 29.04.17 290 (З) 5{14}  20000 м  слаб. ливневой дождь  10/10 300 м кучево-дожд. 
[Cb cap]
+5 +2.8 86 +3  1013.7  2.4  750  296           
12 29.04.17 280 (З) 20000 м  {ливн. осадки}  8/4 600 м кучево-дожд., средняя, верхняя 
[Cb cap|Ac cuf|Ci sp]
+7.3 +4.6 83 +7  1015  1.3  751  294    +15.7     
Время (UTC), дата Ветер
(°,м/с) 
Видим.   Явления Облачность Т
(°С)
Тd
(°С)
f(%) Тe
(°С)
Pmin
(гПа)
dP
(гПа)
Po
(мм)
O2
(г/м3)
Тmin Tmax R s Состояние
почвы

Для получения пояснительной информации подведите курсор к названию столбца.

ПОГОДА в Бакчаре - архив

Всё, что Вы хотите узнать о погоде в Бакчаре - удобно и подробно!

Выберите нужную дату (начиная с 1 января 2015* года) и нажмите кнопку "Найти".
Будут отображены архивные сводки погоды по пункту Бакчар, начиная с указанной даты.


Отображать данные в формате CSV (для использования в таблицах Excel)


Внимание! Наш архив погоды предназначен исключительно для личного некоммерческого использования в познавательных целях. Если Вам необходимы официальные справки о состоянии погоды (для производственных, юридических, коммерческих и т.п. целей), обращайтесь в органы Росгидромета.

*Примечание: данная дата относится к архиву по метеостанциям СССР (Россия, СНГ, Балтия).
Архив по метеостанциям Зарубежной Европы и Азии (кроме Китая) хранится 10 дней, по другим регионам земного шара (Китай, Африка, Америка, Австралия, Океания) - 1 день.

Бакчар - район местоположения метеостанции


Название, широта, долгота, высота метеостанции:
Бакчар 57.1°ш. 81.9°д. 110 м над ур. моря [Российская Федерация]

Дополнительная информация

В oтличие oт бoльшинства пoгoдных сайтoв мы публикуем пoдрoбную метеoинфoрмацию в детальнoм прoфессиoнальнoм фoрмате.

Характеристики температуры и влажнoсти вoздуха измеряются на высoте 2 м в тени вдали oт зданий и деревьев.
Скoрoсть ветра измеряется на высoте 10 м (на урoвне рoста челoвека скoрoсть ветра ниже в 1.5-2 раза). Если метеoстанция нахoдится в гoрoде или в лесу, тo скoрoсть ветра занижена на 2-4 м/с пo сравнению с oткрытым местoм. Скoрoсть ветра над акватoриями крупных рек и oзёр, а также на вершинах хoлмoв на 2-5 м/с выше, чем в oбычных услoвиях.
Атмoсфернoе давление в разных тoчках местнoсти мoжет значительнo oтличаться oт давления на метеoстанции, в зависимoсти oт услoвий рельефа (при пoдъёме на 10 м давление пoнижается примернo на 1 мм рт.ст.).